Flag for Guatemala Weather past 2 weeks in Escuintla, Guatemala

Now
64 °F

Passing clouds.


Feels Like: 64 °F
Forecast: 67 / 96 °F
Wind: 14 mph from North

Location: Guatemala Aeropuertola Aurora

Current Time: Jul 22, 2014 at 3:47:10 AM

Latest Report: Jul 22, 2014 at 3:00 AM


Visibility: N/A

Pressure: 30.30 "Hg

Humidity: 88%

Dew point: 61 °F

Location of EscuintlaLocation

Historic Weather in Escuintla — Graph

°F

Escuintla temperature yesterday

Maximum temperature yesterday: 79 °F (at 2:00 PM)
Minimum temperature yesterday: 63 °F (at 5:00 AM)
Average temperature yesterday: 70 °F

Past Weeks' High & Low Weather Summary

 TemperatureHumidityPressure
High82 °F (Jul 17, 2:00 PM)100% (Jul 11, 5:00 AM)30.36 "Hg (Jul 11, 5:00 AM)
Low61 °F (Jul 7, 5:00 AM)34% (Jul 9, 2:00 PM)29.98 "Hg (Jul 7, 4:00 PM)
Average69 °F76%30.30 "Hg
* Reported Jul 7 2:05 AM — Jul 22 2:00 AM, Escuintla, Weather by CustomWeather, © 2014

Note: Actual official high and low records may vary slightly from our data, if they occured in-between our weather recording intervals... More about our weather records

Advertising

Escuintla weather history for previous 24 hours

 ConditionsComfort  
Time TempWeatherWind HumidityBarometerVisibility
2:00 AM
Jul 22
64 °FPassing clouds.9 mph88%30.30 "HgN/A
1:00 AM66 °FPassing clouds.12 mph83%30.33 "HgN/A
12:00 AM66 °FPassing clouds.12 mph83%30.33 "HgN/A
11:00 PM
Jul 21
66 °FClear.7 mph83%30.33 "Hg10 mi
10:00 PM68 °FPassing clouds.16 mph78%30.33 "HgN/A
9:00 PM70 °FPassing clouds.14 mph73%30.33 "HgN/A
8:00 PM70 °FPassing clouds.12 mph73%30.30 "HgN/A
7:00 PM72 °FPassing clouds.12 mph69%30.27 "HgN/A
6:00 PM75 °FScattered clouds.14 mph57%30.24 "HgN/A
5:00 PM75 °FScattered clouds.16 mph61%30.24 "HgN/A
4:00 PM77 °FScattered clouds.18 mph57%30.24 "HgN/A
3:00 PM79 °FScattered clouds.16 mph54%30.24 "HgN/A
2:00 PM79 °FScattered clouds.16 mph54%30.27 "HgN/A
1:00 PM77 °FScattered clouds.12 mph51%30.27 "HgN/A
12:00 PM77 °FPartly sunny.14 mph51%30.30 "HgN/A
11:00 AM73 °FPartly sunny.12 mph65%30.33 "HgN/A
10:00 AM72 °FBroken clouds.12 mph69%30.33 "HgN/A
9:00 AM70 °FBroken clouds.14 mph69%30.33 "HgN/A
8:00 AM68 °FScattered clouds.14 mph73%30.33 "HgN/A
7:00 AM64 °FPartly sunny.12 mph88%30.33 "HgN/A
6:00 AM63 °FScattered clouds.14 mph94%30.30 "HgN/A
5:00 AM63 °FPassing clouds.14 mph94%30.27 "HgN/A
4:00 AM64 °FPassing clouds.14 mph94%30.27 "HgN/A
3:00 AM64 °FPassing clouds.12 mph94%30.27 "HgN/A
Weather by CustomWeather, © 2014

See weather overviewHow to use our weather pages